Weather History for KELY - March, 2013

Change the Weather History Date:

Friday, March 29, 2013

  Actual Average Record
Temperature  
Mean Temperature 45 °F 39 °F  
Max Temperature 61 °F 53 °F 70 °F (1968)
Min Temperature 28 °F 24 °F 2 °F (1897)
Degree Days  
Heating Degree Days 20 26  
Month to date heating degree days 725 838  
Since 1 July heating degree days 5944 6175  
Cooling Degree Days 0 0  
Month to date cooling degree days 0 0  
Year to date cooling degree days 0 0  
Moisture  
Dew Point 27 °F    
Average Humidity 52    
Maximum Humidity 78    
Minimum Humidity 26    
Precipitation  
Precipitation T in 0.03 in 0.35 in (1899)
Month to date precipitation 0.24 0.87  
Year to date precipitation 1.69 2.32  
Snow  
Snow 0.00 in 0.30 in 4.30 in (1979)
Month to date snowfall 3.1 7.8  
Since 1 July snowfall 58.5 42.7  
Snow Depth 0.00 in    
Sea Level Pressure  
Sea Level Pressure 30.09 in    
Wind  
Wind Speed 6 mph (SSE)    
Max Wind Speed 25 mph    
Max Gust Speed 35 mph    
Visibility 10 miles    
Events      
T = Trace of Precipitation, MM = Missing Value Source: NWS Daily Summary

Daily Weather History Graph

Daily Weather History Graph

Search for Another Location

Airport or City:

Trip Planner

Search our weather history database for the weather conditions in past years. The results will help you decide how hot, cold, wet, or windy it might be!

Date:

Astronomy

Mar. 29, 2013 Rise Set
Actual Time 6:28 AM PDT 7:00 PM PDT
Civil Twilight 6:01 AM PDT 7:27 PM PDT
Nautical Twilight 5:29 AM PDT 7:59 PM PDT
Astronomical Twilight 4:56 AM PDT 8:32 PM PDT
Moon 10:04 PM PDT (3/29) 7:41 AM PDT (3/29)
Length of Visible Light 13h 26m
Length of Day
12h 32m
Waning Gibbous, 93% of the Moon is Illuminated
Mar 29
Waning Gibbous
Apr 2
Last Quarter
Apr 10
New
Apr 18
First Quarter
Apr 25
Full

Hourly Weather History & Observations

Time (PDT) Temp. Windchill Dew Point Humidity Pressure Visibility Wind Dir Wind Speed Gust Speed Precip Events Conditions
12:53 AM 35.1 °F 32.2 °F 25.0 °F 67% 30.04 in 10.0 mi SSW 3.5 mph - N/A   Clear
1:53 AM 34.0 °F 27.2 °F 25.0 °F 70% 30.04 in 10.0 mi SSE 8.1 mph - N/A   Clear
2:53 AM 30.9 °F - 24.1 °F 76% 30.06 in 10.0 mi Calm Calm - N/A   Clear
3:53 AM 28.9 °F 21.9 °F 23.0 °F 78% 30.08 in 10.0 mi South 6.9 mph - N/A   Clear
4:53 AM 32.0 °F 25.6 °F 24.1 °F 73% 30.09 in 10.0 mi South 6.9 mph - N/A   Mostly Cloudy
5:53 AM 30.9 °F 22.8 °F 24.1 °F 76% 30.12 in 10.0 mi South 9.2 mph - N/A   Scattered Clouds
6:53 AM 33.1 °F 25.5 °F 25.0 °F 72% 30.14 in 10.0 mi SSE 9.2 mph - N/A   Overcast
7:53 AM 36.0 °F 30.3 °F 27.0 °F 70% 30.14 in 10.0 mi South 6.9 mph - N/A   Mostly Cloudy
8:53 AM 45.0 °F 41.8 °F 28.9 °F 53% 30.11 in 10.0 mi South 5.8 mph - N/A   Clear
9:53 AM 52.0 °F - 30.0 °F 43% 30.09 in 10.0 mi Calm Calm - N/A   Clear
10:53 AM 55.9 °F - 28.9 °F 36% 30.09 in 10.0 mi Variable 4.6 mph - N/A   Clear
11:53 AM 60.1 °F - 27.0 °F 28% 30.07 in 10.0 mi Variable 3.5 mph - N/A   Partly Cloudy
12:53 PM 59.0 °F - 25.0 °F 27% 30.07 in 10.0 mi Calm Calm - N/A   Overcast
1:53 PM 59.0 °F - 26.1 °F 28% 30.07 in 10.0 mi Variable 6.9 mph - 0.00 in   Overcast
2:53 PM 59.0 °F - 27.0 °F 29% 30.09 in 10.0 mi WSW 10.4 mph 18.4 mph 0.00 in   Overcast
3:53 PM 57.9 °F - 28.9 °F 33% 30.08 in 10.0 mi North 6.9 mph - N/A   Overcast
4:53 PM 59.0 °F - 28.0 °F 31% 30.07 in 10.0 mi North 5.8 mph - N/A   Mostly Cloudy
5:53 PM 57.0 °F - 28.9 °F 34% 30.08 in 10.0 mi North 12.7 mph 19.6 mph N/A   Mostly Cloudy
6:53 PM 53.1 °F - 30.0 °F 41% 30.10 in 10.0 mi NNE 9.2 mph - N/A   Overcast
7:53 PM 51.1 °F - 30.0 °F 44% 30.11 in 10.0 mi Calm Calm - N/A   Overcast
8:53 PM 50.0 °F - 30.0 °F 46% 30.09 in 10.0 mi NNE 4.6 mph - N/A   Scattered Clouds
9:53 PM 39.9 °F 34.5 °F 28.9 °F 65% 30.12 in 10.0 mi SSE 8.1 mph - N/A   Scattered Clouds
10:53 PM 37.9 °F 32.7 °F 27.0 °F 65% 30.12 in 10.0 mi South 6.9 mph - N/A   Clear
11:53 PM 36.0 °F 30.3 °F 27.0 °F 70% 30.11 in 10.0 mi SSE 6.9 mph - N/A   Mostly Cloudy